FW9036 Weather Reports


time (UTC)temp
C
wind
direction
speed
KPH
gust
KPH
rain 1hr
cm
rain 24hr
cm
rain mn
cm
humidity
%
barometer
mb
20260904175124 32 76 8.0 14.5 0.00 0.00 0.00 72 1013.5
20260904174619 33 21 4.8 6.4 0.00 0.00 0.00 69 1013.7
20260904174115 32 87 3.2 4.8 0.00 0.00 0.00 72 1013.7
20260904173615 32 4 0.0 6.4 0.00 0.00 0.00 71 1013.5
20260904173111 32 337 3.2 3.2 0.00 0.00 0.00 65 1013.7
20260904172607 33 250 0.0 6.4 0.00 0.00 0.00 65 1013.6
20260904172106 33 164 1.6 4.8 0.00 0.00 0.00 65 1013.8
20260904171601 32 250 0.0 4.8 0.00 0.00 0.00 65 1013.8
20260904171056 32 220 0.0 3.2 0.00 0.00 0.00 66 1014.0
20260904170552 32 173 0.0 4.8 0.00 0.00 0.00 67 1014.2
20260904170048 32 339 1.6 3.2 0.00 0.00 0.00 68 1014.1
20260904165547 31 182 0.0 3.2 0.00 0.00 0.00 71 1014.1
20260904165046 31 68 1.6 4.8 0.00 0.00 0.00 71 1014.2
20260904164542 31 119 3.2 3.2 0.00 0.00 0.00 70 1014.4
20260904164037 31 277 1.6 6.4 0.00 0.00 0.00 70 1014.4
20260904163537 31 261 3.2 4.8 0.00 0.00 0.00 69 1014.3
20260904163032 32 20 0.0 3.2 0.00 0.00 0.00 66 1014.5
20260904162527 33 329 0.0 6.4 0.00 0.00 0.00 64 1014.4
20260904162022 32 352 1.6 4.8 0.00 0.00 0.00 65 1014.5
20260904161517 32 57 0.0 8.0 0.00 0.00 0.00 67 1014.5
20260904161012 32 291 1.6 4.8 0.00 0.00 0.00 65 1014.7
20260904160507 33 97 4.8 8.0 0.00 0.00 0.00 62 1015.0
20260904160004 33 264 1.6 6.4 0.00 0.00 0.00 65 1014.9
20260904155503 31 334 1.6 3.2 0.00 0.00 0.00 71 1014.9
20260904155001 31 69 0.0 4.8 0.00 0.00 0.00 71 1014.9
20260904154456 31 288 4.8 6.4 0.00 0.00 0.00 71 1015.1
20260904153951 31 322 1.6 3.2 0.00 0.00 0.00 73 1014.8
20260904153445 31 153 1.6 4.8 0.00 0.00 0.00 74 1014.9
20260904152942 30 308 3.2 3.2 0.00 0.00 0.00 75 1014.6
20260904152438 30 38 0.0 6.4 0.00 0.00 0.00 75 1014.7
20260904151938 30 194 0.0 3.2 0.00 0.00 0.00 76 1014.6
20260904151433 30 176 0.0 4.8 0.00 0.00 0.00 76 1014.4
20260904150927 30 302 0.0 3.2 0.00 0.00 0.00 75 1014.7
20260904150422 30 204 3.2 4.8 0.00 0.00 0.00 76 1014.7
20260904145920 30 46 1.6 4.8 0.00 0.00 0.00 76 1014.7
20260904145416 30 234 0.0 4.8 0.00 0.00 0.00 77 1014.6
20260904144912 30 13 0.0 3.2 0.00 0.00 0.00 75 1014.7
20260904144407 30 267 4.8 4.8 0.00 0.00 0.00 76 1014.7
20260904143903 30 69 3.2 4.8 0.00 0.00 0.00 76 1014.6
20260904143359 30 235 0.0 6.4 0.00 0.00 0.00 78 1014.5
20260904142856 30 199 0.0 3.2 0.00 0.00 0.00 80 1014.4
20260904142352 30 287 0.0 6.4 0.00 0.00 0.00 78 1014.5
20260904141851 29 295 1.6 8.0 0.00 0.00 0.00 79 1014.5
20260904141346 29 259 1.6 4.8 0.00 0.00 0.00 79 1014.3
20260904140843 29 306 3.2 6.4 0.00 0.00 0.00 79 1014.4
20260904140337 28 185 1.6 3.2 0.00 0.00 0.00 80 1014.4
20260904135836 28 258 3.2 6.4 0.00 0.00 0.00 81 1014.4
20260904135331 28 239 1.6 6.4 0.00 0.00 0.00 80 1014.5
20260904134827 28 107 4.8 8.0 0.00 0.00 0.00 80 1014.4
20260904134322 28 61 0.0 3.2 0.00 0.00 0.00 82 1014.4
20260904133822 28 317 0.0 4.8 0.00 0.00 0.00 83 1014.3
20260904133318 28 86 3.2 4.8 0.00 0.00 0.00 84 1014.2
20260904132817 28 298 3.2 4.8 0.00 0.00 0.00 84 1014.3
20260904132312 28 138 3.2 8.0 0.00 0.00 0.00 83 1014.3
20260904131812 28 274 0.0 3.2 0.00 0.00 0.00 85 1014.2
20260904131308 28 283 0.0 3.2 0.00 0.00 0.00 85 1014.4
20260904130808 28 58 0.0 3.2 0.00 0.00 0.00 85 1014.3
20260904130307 28 90 1.6 6.4 0.00 0.00 0.00 86 1014.6
20260904125803 28 303 0.0 3.2 0.00 0.00 0.00 87 1014.5
20260904125259 27 227 0.0 3.2 0.00 0.00 0.00 88 1014.7
20260904124753 27 296 0.0 4.8 0.00 0.00 0.00 89 1014.5
20260904124249 27 114 1.6 3.2 0.00 0.00 0.00 90 1014.2
20260904123749 27 161 0.0 4.8 0.00 0.00 0.00 90 1014.2
20260904123239 27 356 0.0 3.2 0.00 0.00 0.00 91 1014.4
20260904122734 27 98 0.0 3.2 0.00 0.00 0.00 91 1014.1
20260904122228 27 300 0.0 3.2 0.00 0.00 0.00 94 1014.0
20260904121724 26 190 0.0 3.2 0.00 0.00 0.00 97 1014.0
20260904121219 26 161 1.6 4.8 0.00 0.00 0.00 98 1014.1
20260904120715 26 218 0.0 3.2 0.00 0.00 0.00 98 1014.1
20260904120211 25 87 0.0 1.6 0.00 0.00 0.00 98 1014.2
20260904115706 25 31 0.0 1.6 0.00 0.00 0.00 98 1013.9
20260904115201 25 0 0.0 0.0 0.00 0.00 0.00 98 1014.1
20260904114701 25 250 0.0 0.0 0.00 0.00 0.00 98 1013.9
20260904114155 25 250 0.0 0.0 0.00 0.00 0.00 98 1013.9
20260904113650 25 223 0.0 0.0 0.00 0.00 0.00 98 1013.9
20260904113149 25 122 0.0 0.0 0.00 0.00 0.00 98 1013.7
20260904112644 25 116 0.0 0.0 0.00 0.00 0.00 98 1013.6
20260904112140 25 278 0.0 0.0 0.00 0.00 0.00 98 1013.5
20260904111636 25 277 0.0 0.0 0.00 0.00 0.00 98 1013.6
20260904111131 25 198 0.0 0.0 0.00 0.00 0.00 98 1013.7
20260904110627 25 198 0.0 0.0 0.00 0.00 0.00 98 1013.6
20260904110126 25 70 0.0 0.0 0.00 0.00 0.00 98 1013.4
20260904105626 25 55 0.0 0.0 0.00 0.00 0.00 98 1013.6
20260904105121 25 134 0.0 0.0 0.00 0.00 0.00 98 1013.5
20260904104617 25 205 0.0 0.0 0.00 0.00 0.00 98 1013.4
20260904104112 25 98 0.0 0.0 0.00 0.00 0.00 98 1013.3
20260904103608 25 98 0.0 0.0 0.00 0.00 0.00 98 1013.5
20260904103104 25 356 0.0 0.0 0.00 0.00 0.00 98 1013.2
20260904102600 25 43 0.0 0.0 0.00 0.00 0.00 98 1013.3
20260904102055 25 123 0.0 1.6 0.00 0.00 0.00 98 1013.3
20260904101551 25 153 0.0 0.0 0.00 0.00 0.00 98 1013.5
20260904101047 25 70 0.0 0.0 0.00 0.00 0.00 97 1013.5
20260904100542 25 334 0.0 0.0 0.00 0.00 0.00 97 1013.3
20260904100037 25 186 0.0 0.0 0.00 0.00 0.00 97 1013.2
20260904095532 25 13 0.0 0.0 0.00 0.00 0.00 97 1013.3
20260904095027 25 250 0.0 0.0 0.00 0.00 0.00 97 1013.3
20260904094522 25 103 0.0 0.0 0.00 0.00 0.00 97 1013.2
20260904094017 25 278 0.0 0.0 0.00 0.00 0.00 97 1013.3
20260904093514 25 18 0.0 0.0 0.00 0.00 0.00 97 1013.2
20260904093009 25 110 0.0 1.6 0.00 0.00 0.00 97 1013.1
20260904092504 25 58 0.0 0.0 0.00 0.00 0.00 97 1013.3
20260904092000 25 123 0.0 0.0 0.00 0.00 0.00 97 1013.0
20260904091451 25 290 0.0 0.0 0.00 0.00 0.00 97 1013.1
20260904090950 25 211 0.0 0.0 0.00 0.00 0.00 96 1013.0
20260904090446 25 107 0.0 0.0 0.00 0.00 0.00 96 1013.1
20260904085941 25 18 0.0 1.6 0.00 0.00 0.00 96 1012.9
20260904085437 25 134 0.0 0.0 0.00 0.00 0.00 96 1013.2
20260904084936 25 134 0.0 0.0 0.00 0.00 0.00 96 1013.2
20260904084432 25 134 0.0 0.0 0.00 0.00 0.00 96 1013.0
20260904083928 25 134 0.0 0.0 0.00 0.00 0.00 96 1013.2
20260904083424 25 134 0.0 0.0 0.00 0.00 0.00 96 1012.8
20260904082920 25 134 0.0 0.0 0.00 0.00 0.00 95 1013.0
20260904082420 25 134 0.0 0.0 0.00 0.00 0.00 95 1012.9
20260904081914 25 186 0.0 0.0 0.00 0.00 0.00 95 1013.0
20260904081410 25 186 0.0 0.0 0.00 0.00 0.00 95 1013.0
20260904080906 25 186 0.0 0.0 0.00 0.00 0.00 95 1012.9
20260904080401 25 186 0.0 0.0 0.00 0.00 0.00 95 1013.1
20260904075857 25 186 0.0 0.0 0.00 0.00 0.00 95 1013.2
20260904075353 25 98 0.0 0.0 0.00 0.00 0.00 94 1013.0
20260904074851 25 98 0.0 0.0 0.00 0.00 0.00 95 1012.9
20260904074346 25 144 0.0 0.0 0.00 0.00 0.00 96 1013.1
20260904073842 25 290 0.0 0.0 0.00 0.00 0.00 96 1013.0
20260904073338 25 205 0.0 0.0 0.00 0.00 0.00 97 1012.9
20260904072833 25 98 0.0 0.0 0.00 0.00 0.00 97 1013.0
20260904072333 25 98 0.0 0.0 0.00 0.00 0.00 97 1013.3
20260904071828 25 85 0.0 0.0 0.00 0.00 0.00 97 1013.0
20260904071324 25 85 0.0 0.0 0.00 0.00 0.00 97 1013.1
20260904070818 25 70 0.0 0.0 0.00 0.00 0.00 97 1013.0
20260904070317 25 70 0.0 0.0 0.00 0.00 0.00 97 1012.9
20260904065812 25 70 0.0 0.0 0.00 0.00 0.00 97 1012.9
20260904065308 25 70 0.0 0.0 0.00 0.00 0.00 97 1013.2
20260904064803 25 70 0.0 0.0 0.00 0.00 0.00 96 1013.0
20260904064259 25 70 0.0 0.0 0.00 0.00 0.00 96 1013.2
20260904063754 25 70 0.0 0.0 0.00 0.00 0.00 96 1013.0
20260904063250 25 70 0.0 0.0 0.00 0.00 0.00 96 1013.2
20260904062746 25 70 0.0 0.0 0.00 0.00 0.00 96 1013.2
20260904062242 25 70 0.0 0.0 0.00 0.00 0.00 96 1013.2
20260904061737 25 70 0.0 0.0 0.00 0.00 0.00 96 1013.3
20260904061233 25 70 0.0 0.0 0.00 0.00 0.00 96 1013.5
20260904060730 25 250 0.0 0.0 0.00 0.00 0.00 95 1013.4
20260904060225 25 250 0.0 0.0 0.00 0.00 0.00 95 1013.5
20260904055720 25 250 0.0 0.0 0.00 0.00 0.00 95 1013.8
20260904055215 25 250 0.0 0.0 0.00 0.00 0.00 95 1013.6
20260904054711 25 250 0.0 0.0 0.00 0.00 0.00 95 1013.9
20260904054207 25 250 0.0 0.0 0.00 0.00 0.00 95 1013.7
20260904053701 25 250 0.0 0.0 0.00 0.00 0.00 94 1013.7
20260904053156 25 98 0.0 0.0 0.00 0.00 0.00 95 1013.8
20260904052653 25 98 0.0 0.0 0.00 0.00 0.00 95 1014.0
20260904052148 25 110 0.0 0.0 0.00 0.00 0.00 95 1014.1
20260904051645 25 57 0.0 0.0 0.00 0.00 0.00 95 1014.0
20260904051145 25 57 0.0 0.0 0.00 0.00 0.00 95 1014.1
20260904050640 25 57 0.0 0.0 0.00 0.00 0.00 95 1014.1
20260904050137 25 186 0.0 0.0 0.00 0.00 0.00 95 1014.1
20260904045636 25 186 0.0 0.0 0.00 0.00 0.00 95 1014.2
20260904045131 25 186 0.0 0.0 0.00 0.00 0.00 95 1014.2
20260904044626 25 186 0.0 0.0 0.00 0.00 0.00 94 1014.1
20260904044123 25 186 0.0 0.0 0.00 0.00 0.00 94 1014.2
20260904043619 25 186 0.0 0.0 0.00 0.00 0.00 94 1014.1
20260904043115 26 150 0.0 0.0 0.00 0.00 0.00 94 1014.2
20260904042610 26 123 0.0 0.0 0.00 0.00 0.00 93 1014.1
20260904042106 26 227 0.0 1.6 0.00 0.00 0.00 93 1014.1
20260904041601 26 285 0.0 0.0 0.00 0.00 0.00 92 1014.1
20260904041057 26 285 0.0 0.0 0.00 0.00 0.00 92 1014.0
20260904040557 26 210 0.0 0.0 0.00 0.00 0.00 92 1014.0
20260904040054 26 92 0.0 0.0 0.00 0.00 0.00 92 1014.2
20260904035549 26 296 0.0 0.0 0.00 0.00 0.00 91 1014.0
20260904035048 26 94 0.0 1.6 0.00 0.00 0.00 91 1014.2
20260904034543 26 105 0.0 0.0 0.00 0.00 0.00 91 1014.2
20260904034039 26 268 0.0 0.0 0.00 0.00 0.00 91 1014.2
20260904033535 26 110 0.0 0.0 0.00 0.00 0.00 91 1014.1
20260904033032 26 250 0.0 0.0 0.00 0.00 0.00 91 1014.0
20260904032528 26 250 0.0 1.6 0.00 0.00 0.00 91 1014.1
20260904032026 26 198 0.0 0.0 0.00 0.00 0.00 91 1013.9
20260904031521 26 43 0.0 1.6 0.00 0.00 0.00 91 1014.0
20260904031017 26 98 0.0 1.6 0.00 0.00 0.00 91 1014.1
20260904030513 26 303 0.0 0.0 0.00 0.00 0.00 91 1014.0
20260904030008 26 290 0.0 1.6 0.00 0.00 0.00 91 1013.9
20260904025504 26 315 0.0 0.0 0.00 0.00 0.00 90 1014.0
20260904025004 26 274 0.0 0.0 0.00 0.00 0.00 90 1014.1
20260904024459 26 153 0.0 0.0 0.00 0.00 0.00 90 1013.9
20260904023954 26 210 0.0 1.6 0.00 0.00 0.00 90 1013.6
20260904023450 26 163 0.0 0.0 0.00 0.00 0.00 90 1013.8
20260904022950 26 278 0.0 0.0 0.00 0.00 0.00 90 1013.9
20260904022446 26 278 0.0 0.0 0.00 0.00 0.00 90 1013.8
20260904021943 26 34 0.0 1.6 0.00 0.00 0.00 90 1013.7
20260904021438 26 31 0.0 3.2 0.00 0.00 0.00 90 1013.8
20260904020933 26 98 0.0 0.0 0.00 0.00 0.00 90 1013.9
20260904020428 26 216 0.0 1.6 0.00 0.00 0.00 91 1013.7
20260904015926 26 223 0.0 0.0 0.00 0.00 0.00 90 1013.9
20260904015422 26 95 0.0 1.6 0.00 0.00 0.00 90 1013.5
20260904014920 26 20 0.0 1.6 0.00 0.00 0.00 90 1013.7
20260904014416 26 198 0.0 1.6 0.00 0.00 0.00 90 1013.7
20260904013912 26 43 0.0 0.0 0.00 0.00 0.00 89 1013.5
20260904013407 26 250 0.0 0.0 0.00 0.00 0.00 89 1013.9
20260904012858 26 236 0.0 1.6 0.00 0.00 0.00 88 1013.7
20260904012357 26 186 0.0 0.0 0.00 0.00 0.00 88 1013.9
20260904011857 26 98 0.0 1.6 0.00 0.00 0.00 88 1013.9
20260904011352 26 98 0.0 0.0 0.00 0.00 0.00 88 1013.5
20260904010847 26 25 0.0 1.6 0.00 0.00 0.00 88 1013.8
20260904010344 26 227 0.0 0.0 0.00 0.00 0.00 87 1013.5
20260904005838 26 205 0.0 0.0 0.00 0.00 0.00 86 1013.5
20260904005334 26 198 0.0 1.6 0.00 0.00 0.00 86 1013.5
20260904004829 27 91 0.0 3.2 0.00 0.00 0.00 85 1013.5
20260904004326 27 21 0.0 1.6 0.00 0.00 0.00 86 1013.2
20260904003820 27 130 0.0 0.0 0.00 0.00 0.00 85 1013.5
20260904003316 27 84 0.0 0.0 0.00 0.00 0.00 85 1013.5
20260904002812 27 278 0.0 0.0 0.00 0.00 0.00 84 1013.6
20260904002308 27 84 0.0 0.0 0.00 0.00 0.00 84 1013.6
20260904001807 27 70 0.0 0.0 0.00 0.00 0.00 84 1013.5
20260904001302 27 216 0.0 0.0 0.00 0.00 0.00 84 1013.6
20260904000757 27 250 0.0 0.0 0.00 0.00 0.00 84 1013.4
20260904000251 27 97 0.0 1.6 0.00 0.00 0.00 83 1013.2
20260903235750 27 25 0.0 1.6 0.00 0.00 0.00 84 1013.3
20260903235247 27 31 0.0 1.6 0.00 0.00 0.00 84 1013.3
20260903234746 27 200 0.0 0.0 0.00 0.00 0.00 84 1013.1
20260903234243 27 54 0.0 1.6 0.00 0.00 0.00 83 1013.1
20260903233739 28 123 0.0 3.2 0.00 0.00 0.00 82 1013.1
20260903233234 28 214 0.0 1.6 0.00 0.00 0.00 81 1013.2
20260903232733 28 352 0.0 3.2 0.00 0.00 0.00 81 1013.0
20260903232230 28 347 1.6 1.6 0.00 0.00 0.00 80 1012.9
20260903231728 28 98 1.6 1.6 0.00 0.00 0.00 80 1012.9
20260903231224 28 199 0.0 1.6 0.00 0.00 0.00 79 1012.8
20260903230719 28 96 0.0 1.6 0.00 0.00 0.00 79 1012.7
20260903230214 28 176 0.0 0.0 0.00 0.00 0.00 78 1012.8
20260903225710 28 134 0.0 3.2 0.00 0.00 0.00 78 1012.6
20260903225207 28 96 0.0 1.6 0.00 0.00 0.00 79 1012.7
20260903224703 29 114 0.0 3.2 0.00 0.00 0.00 78 1012.8
20260903224158 29 296 0.0 0.0 0.00 0.00 0.00 76 1012.4
20260903223659 29 317 1.6 1.6 0.00 0.00 0.00 75 1012.5
20260903223157 29 95 3.2 3.2 0.00 0.00 0.00 75 1012.4
20260903222658 29 250 0.0 1.6 0.00 0.00 0.00 74 1012.1
20260903222156 29 189 0.0 3.2 0.00 0.00 0.00 75 1012.2
20260903221652 29 188 0.0 4.8 0.00 0.00 0.00 73 1012.3
20260903221150 29 116 0.0 1.6 0.00 0.00 0.00 73 1012.4
20260903220649 30 58 0.0 1.6 0.00 0.00 0.00 72 1012.2
20260903220144 29 266 1.6 1.6 0.00 0.00 0.00 78 1012.2
20260903215643 29 193 0.0 1.6 0.00 0.00 0.00 76 1012.2
20260903215138 29 84 0.0 3.2 0.00 0.00 0.00 76 1012.1
20260903214636 30 94 0.0 3.2 0.00 0.00 0.00 76 1012.1
20260903214132 29 163 1.6 1.6 0.00 0.00 0.00 76 1012.4
20260903213627 29 192 0.0 3.2 0.00 0.00 0.00 74 1012.4
20260903213123 30 86 0.0 4.8 0.00 0.00 0.00 74 1012.2
20260903212618 30 34 1.6 1.6 0.00 0.00 0.00 74 1012.4
20260903212114 30 189 1.6 3.2 0.00 0.00 0.00 74 1012.1
20260903211608 30 245 1.6 1.6 0.00 0.00 0.00 74 1012.2
20260903211106 29 47 0.0 4.8 0.00 0.00 0.00 74 1012.4
20260903210600 30 278 0.0 1.6 0.00 0.00 0.00 75 1012.2
20260903210056 30 273 0.0 3.2 0.00 0.00 0.00 77 1011.9
20260903205555 30 135 1.6 4.8 0.00 0.00 0.00 76 1012.1
20260903205049 30 100 0.0 6.4 0.00 0.00 0.00 76 1012.4
20260903204546 30 37 1.6 4.8 0.00 0.00 0.00 76 1012.5
20260903204041 30 103 0.0 4.8 0.00 0.00 0.00 75 1012.4
20260903203536 30 341 1.6 4.8 0.00 0.00 0.00 74 1012.4
20260903203036 30 34 0.0 4.8 0.00 0.00 0.00 75 1012.8
20260903202532 30 152 6.4 6.4 0.00 0.00 0.00 75 1012.6
20260903202027 30 344 0.0 6.4 0.00 0.00 0.00 74 1012.8
20260903201522 30 15 3.2 3.2 0.00 0.00 0.00 73 1013.0
20260903201020 30 79 1.6 3.2 0.00 0.00 0.00 74 1013.0
20260903200515 30 23 0.0 4.8 0.00 0.00 0.00 74 1013.1
20260903200011 31 20 3.2 4.8 0.00 0.00 0.00 72 1013.2
20260903195507 31 183 0.0 4.8 0.00 0.00 0.00 72 1013.4
20260903195002 31 128 1.6 4.8 0.00 0.00 0.00 72 1013.3
20260903194457 31 73 3.2 8.0 0.00 0.00 0.00 72 1013.3
20260903193953 31 319 0.0 3.2 0.00 0.00 0.00 71 1013.5
20260903193449 31 18 0.0 4.8 0.00 0.00 0.00 71 1013.4
20260903192943 31 0 4.8 4.8 0.00 0.00 0.00 70 1013.3
20260903192441 31 11 1.6 4.8 0.00 0.00 0.00 73 1013.3
20260903191935 30 74 1.6 4.8 0.00 0.00 0.00 73 1013.4
20260903191432 31 7 3.2 3.2 0.00 0.00 0.00 71 1013.2
20260903190931 31 26 1.6 3.2 0.00 0.00 0.00 70 1013.4
20260903190425 31 132 0.0 4.8 0.00 0.00 0.00 71 1013.4
20260903185919 31 73 1.6 4.8 0.00 0.00 0.00 70 1013.4
20260903185414 31 94 0.0 4.8 0.00 0.00 0.00 74 1013.5
20260903184910 31 20 9.7 9.7 0.00 0.00 0.00 73 1013.5
20260903184407 31 20 4.8 6.4 0.00 0.00 0.00 74 1013.5
20260903183906 30 79 0.0 8.0 0.00 0.00 0.00 74 1013.4
20260903183401 30 238 4.8 4.8 0.00 0.00 0.00 75 1013.5
20260903182901 30 148 3.2 3.2 0.00 0.00 0.00 77 1013.9
20260903182359 30 55 0.0 6.4 0.00 0.00 0.00 77 1013.8
20260903181854 30 278 0.0 3.2 0.00 0.00 0.00 79 1014.0
20260903181349 30 348 4.8 6.4 0.00 0.00 0.00 78 1014.0
20260903180843 29 216 0.0 3.2 0.00 0.00 0.00 81 1014.1
20260903180343 28 13 0.0 1.6 0.00 0.00 0.00 81 1014.2
20260903175843 28 79 0.0 3.2 0.00 0.00 0.00 82 1014.2